{"data":{"norad_id":64097,"intl_designator":"2025-110B","name":"STARLINK-34174","alt_names":[],"object_type":"PAYLOAD","status":"ACTIVE","operator":null,"country":"US","launch_date":"2025-05-23","launch_site_code":"AFWTR","launch_vehicle":null,"mission":null,"orbit_class":"UNKNOWN","rcs_meters":null,"size_class":null,"mass_kg":null,"dimensions":null,"purposes":["comms"],"wikipedia_slug":null,"has_3d_model":false,"image_url":null,"decayed_at":null,"tle_current":{"epoch":"2026-05-25T01:35:16.435680Z","epoch_age_seconds":69040,"freshness":"FRESH","line1":"1 64097U 25110B   26145.06616245  .00018122  00000+0  54622-3 0  9998","line2":"2 64097  53.1607  31.4724 0001128  80.7830 279.3300 15.34398181 57581","mean_motion":15.34398181,"eccentricity":0.0001128,"inclination_deg":53.1607,"raan_deg":31.4724,"arg_perigee_deg":80.783,"mean_anomaly_deg":279.33,"bstar":0.00054622,"rev_number":5758,"period_min":93.847869336076,"perigee_km":461.93699927484,"apogee_km":463.48029405273,"semimajor_km":6840.8456466638,"source":"CELESTRAK","updated_at":"2026-05-25T13:38:20.263335Z"}}}